Regional Weather Roundup
Issued by NWS Midland/Odessa, TX

Home | Current Version | Previous Version | Text Only | Print | Product List | Glossary On
Versions: 1 2 3 4 5 6 7 8 9 10 11 12 13 14 15 16 17 18 19 20 21 22 23 24 25 26 27 28 29 30 31 32 33 34 35 36 37 38 39 40 41 42 43 44 45 46 47 48 49 50
000
ASUS44 KMAF 261710
RWRMAF
MIDLAND AREA WEATHER ROUNDUP
NATIONAL WEATHER SERVICE MIDLAND TX
1100 AM CST MON JAN 26 2015

...IN SOUTHWEST TEXAS AND SOUTHEAST NEW MEXICO...

CITY           SKY/WX    TMP DP  RH WIND       PRES   REMARKS
ALPINE         CLOUDY    54  27  35 SW5       30.42S
ANDREWS        FAIR      55  31  39 W9        30.32R
ARTESIA        PTSUNNY   43  34  70 NW6       30.35R WCI  39
BIG SPRING     PTSUNNY   48  32  55 CALM      30.33S
CARLSBAD       PTSUNNY   46  32  58 NW10      30.34R
DRYDEN         NOT AVBL
FORT STOCKTON  CLOUDY    52  35  52 SW9       30.34R
GUAD PASS      NOT AVBL
HOBBS          SUNNY     52  32  46 NW5       30.32R
MARFA          CLOUDY    48  28  46 CALM      30.40R
MIDLAND AIRPK  PTSUNNY   55  33  44 W5        30.32S
MIDLAND INTL   PTSUNNY   56  35  45 W5        30.32R
ODESSA         PTSUNNY   56  34  43 W7        30.32R
PECOS          PTSUNNY   45  35  68 N6        30.36R
PRESIDIO       FAIR      50  34  53 CALM      30.35F
SEMINOLE       PTSUNNY   53  32  44 W9        30.32R
SNYDER         SUNNY    N/A N/A N/A W8        30.29S
WINK           PTSUNNY   49  30  48 SW5       30.33R
$$
...OTHER STATIONS IN TEXAS...

CITY           SKY/WX    TMP DP  RH WIND       PRES   REMARKS
ABILENE        SUNNY     63  31  30 W12       30.26S
AMARILLO       SUNNY     53  32  44 NW14      30.26R
AUSTIN         PTSUNNY   63  37  38 NW12      30.28R
BROWNSVILLE    SUNNY     70  41  34 VRB3      30.31R
CORPUS CHRISTI PTSUNNY   66  43  43 N5        30.31R
DALLAS FTW     MOSUNNY   55  30  38 SW7       30.21F
DEL RIO        PTSUNNY   56  39  53 NW5       30.32S
EL PASO        PTSUNNY   48  29  47 N10       30.35R
HOUSTON INT    MOSUNNY   58  33  39 W6        30.26F
LUBBOCK        MOSUNNY   54  33  45 W14       30.27R
SAN ANGELO     PTSUNNY   51  37  58 W7        30.30S
SAN ANTONIO    PTSUNNY   64  36  35 SW6       30.30R
WACO           SUNNY     57  35  43 SW7       30.26S
WICHITA FALLS  NOT AVBL
$$
...OTHER LOCATIONS IN NEW MEXICO...

CITY           SKY/WX    TMP DP  RH WIND       PRES   REMARKS
ALAMAGORDO     CLOUDY    37  28  70 CALM      30.38R
ALBUQUERQUE    MOSUNNY   38  26  62 CALM      30.40R
CANNON AFB     SUNNY     50  34  53 W9        30.31R
CLOVIS         SUNNY     52  34  50 W7        30.30R
HOLLOMAN AFB   CLOUDY    38  31  75 W1        30.36R
ROSWELL        MOSUNNY   42  31  64 CALM      30.33R
RUIDOSO        PTSUNNY   48  19  32 CALM      30.41R
SANTA FE       SUNNY     41  24  51 N22       30.38R WCI  31
TRUTH OR CONSE PTSUNNY   45  26  47 NE6       30.37R
TUCUMCARI      SUNNY     44  32  62 W6        30.30R
$$



USA.gov is the U.S. government's official web portal to all federal, state and local government web resources and services.